Weather History for Farmington, MO

Change the Weather History Date:

Thursday, January 17, 2013

  Actual Average Record
Temperature  
Mean Temperature 33 °F -  
Max Temperature 42 °F 38 °F 64 °F (2012)
Min Temperature 23 °F 22 °F 3 °F (1997)
Degree Days  
Heating Degree Days 32    
Moisture  
Dew Point 22 °F    
Average Humidity 62    
Maximum Humidity 80    
Minimum Humidity 39    
Precipitation  
Precipitation 0.00 in - - ()
Sea Level Pressure  
Sea Level Pressure 30.32 in    
Wind  
Wind Speed 7 mph (NNW)    
Max Wind Speed 17 mph    
Max Gust Speed 24 mph    
Visibility 10 miles    
Events      
Averages and records for this station are not official NWS values.
T = Trace of Precipitation, MM = Missing Value Source: NWS Daily Summary

Daily Weather History Graph

Daily Weather History Graph

Search for Another Location

Airport:

Trip Planner

Search our weather history database for the weather conditions in past years. The results will help you decide how hot, cold, wet, or windy it might be!

Date:

Astronomy

Jan. 17, 2013 Rise Set
Actual Time 7:15 AM CST 5:09 PM CST
Civil Twilight 6:46 AM CST 5:37 PM CST
Nautical Twilight 6:14 AM CST 6:09 PM CST
Astronomical Twilight 5:42 AM CST 6:41 PM CST
Moon 10:30 AM CST (1/17) 11:52 PM CST (1/17)
Length of Visible Light 10h 51m
Length of Day
9h 54m
Waxing Crescent, 38% of the Moon is Illuminated
Jan 17
Waxing Crescent
Jan 18
First Quarter
Jan 26
Full
Feb 3
Last Quarter
Feb 10
New

Hourly Weather History & Observations

Time (CST) Temp. Windchill Dew Point Humidity Pressure Visibility Wind Dir Wind Speed Gust Speed Precip Events Conditions
12:15 AM 32.0 °F 28.7 °F 19.4 °F 60% 30.14 in 10.0 mi West 3.5 mph - N/A   Clear
12:35 AM 32.0 °F - 19.4 °F 60% 30.15 in 10.0 mi Calm Calm - N/A   Clear
12:55 AM 30.2 °F - 19.4 °F 64% 30.15 in 10.0 mi Calm Calm - N/A   Clear
1:15 AM 30.2 °F 24.3 °F 19.4 °F 64% 30.14 in 10.0 mi WNW 5.8 mph - N/A   Scattered Clouds
1:35 AM 33.8 °F 28.6 °F 21.2 °F 60% 30.15 in 10.0 mi WNW 5.8 mph - N/A   Overcast
1:55 AM 33.8 °F 28.6 °F 21.2 °F 60% 30.15 in 10.0 mi NNW 5.8 mph - N/A   Overcast
2:15 AM 35.6 °F 30.7 °F 23.0 °F 60% 30.16 in 10.0 mi NW 5.8 mph - N/A   Overcast
2:35 AM 35.6 °F 29.2 °F 23.0 °F 60% 30.16 in 10.0 mi NW 8.1 mph - N/A   Overcast
2:55 AM 35.6 °F 29.9 °F 23.0 °F 60% 30.17 in 10.0 mi WNW 6.9 mph - N/A   Overcast
3:35 AM 35.6 °F 30.7 °F 23.0 °F 60% 30.17 in 10.0 mi WNW 5.8 mph - N/A   Overcast
3:55 AM 35.6 °F 31.7 °F 23.0 °F 60% 30.17 in 10.0 mi WNW 4.6 mph - N/A   Overcast
4:15 AM 35.6 °F 31.7 °F 23.0 °F 60% 30.17 in 10.0 mi NW 4.6 mph - N/A   Overcast
4:35 AM 35.6 °F 29.9 °F 23.0 °F 60% 30.18 in 10.0 mi NNW 6.9 mph - N/A   Overcast
4:55 AM 33.8 °F 27.7 °F 21.2 °F 60% 30.17 in 10.0 mi NW 6.9 mph - N/A   Scattered Clouds
5:15 AM 33.8 °F 26.4 °F 23.0 °F 65% 30.17 in 10.0 mi NNW 9.2 mph - N/A   Clear
5:35 AM 33.8 °F 27.0 °F 23.0 °F 65% 30.18 in 10.0 mi NNW 8.1 mph - N/A   Mostly Cloudy
5:55 AM 33.8 °F 27.0 °F 23.0 °F 65% 30.19 in 10.0 mi NNW 8.1 mph - N/A   Mostly Cloudy
6:15 AM 33.8 °F 26.4 °F 23.0 °F 65% 30.20 in 10.0 mi NNW 9.2 mph - N/A   Partly Cloudy
6:35 AM 33.8 °F 25.8 °F 24.8 °F 70% 30.21 in 10.0 mi NNW 10.4 mph - N/A   Mostly Cloudy
6:55 AM 33.8 °F 26.4 °F 24.8 °F 70% 30.22 in 10.0 mi NNW 9.2 mph - N/A   Overcast
7:15 AM 33.8 °F 26.4 °F 24.8 °F 70% 30.23 in 10.0 mi NNW 9.2 mph - N/A   Overcast
7:35 AM 33.8 °F 26.4 °F 24.8 °F 70% 30.24 in 10.0 mi NNW 9.2 mph - N/A   Mostly Cloudy
7:55 AM 33.8 °F 26.4 °F 24.8 °F 70% 30.25 in 10.0 mi NNW 9.2 mph - N/A   Overcast
8:15 AM 33.8 °F 27.0 °F 24.8 °F 70% 30.27 in 10.0 mi NNW 8.1 mph - N/A   Overcast
8:35 AM 33.8 °F 25.8 °F 24.8 °F 70% 30.29 in 10.0 mi NNW 10.4 mph - N/A   Overcast
8:55 AM 33.8 °F 27.7 °F 26.6 °F 75% 30.29 in 10.0 mi NNW 6.9 mph - N/A   Overcast
9:15 AM 35.6 °F 28.0 °F 26.6 °F 70% 30.31 in 10.0 mi North 10.4 mph - N/A   Overcast
9:35 AM 35.6 °F 28.0 °F 28.4 °F 75% 30.32 in 10.0 mi North 10.4 mph - N/A   Overcast
9:55 AM 35.6 °F 27.5 °F 28.4 °F 75% 30.33 in 10.0 mi North 11.5 mph 19.6 mph N/A   Overcast
10:15 AM 35.6 °F 27.5 °F 28.4 °F 75% 30.33 in 10.0 mi North 11.5 mph - N/A   Overcast
10:35 AM 35.6 °F 28.6 °F 28.4 °F 75% 30.34 in 10.0 mi North 9.2 mph 19.6 mph N/A   Overcast
10:55 AM 35.6 °F 29.9 °F 28.4 °F 75% 30.34 in 10.0 mi North 6.9 mph - N/A   Overcast
11:15 AM 35.6 °F 28.6 °F 28.4 °F 75% 30.34 in 10.0 mi North 9.2 mph - N/A   Overcast
11:35 AM 35.6 °F 28.6 °F 28.4 °F 75% 30.34 in 10.0 mi North 9.2 mph - N/A   Overcast
11:55 AM 35.6 °F 29.2 °F 28.4 °F 75% 30.34 in 10.0 mi NNW 8.1 mph 17.3 mph N/A   Overcast
12:15 PM 35.6 °F 28.0 °F 28.4 °F 75% 30.33 in 10.0 mi NNW 10.4 mph 17.3 mph N/A   Overcast
12:35 PM 37.4 °F 27.8 °F 28.4 °F 70% 30.34 in 10.0 mi NNW 17.3 mph - N/A   Overcast
12:55 PM 37.4 °F 29.8 °F 28.4 °F 70% 30.33 in 10.0 mi NW 11.5 mph 19.6 mph N/A   Overcast
1:15 PM 37.4 °F 30.3 °F 26.6 °F 65% 30.33 in 10.0 mi NNW 10.4 mph - N/A   Mostly Cloudy
1:35 PM 39.2 °F 31.2 °F 26.6 °F 61% 30.32 in 10.0 mi NNW 13.8 mph 19.6 mph N/A   Partly Cloudy
1:55 PM 39.2 °F 31.6 °F 26.6 °F 61% 30.32 in 10.0 mi NNW 12.7 mph 19.6 mph N/A   Clear
2:15 PM 41.0 °F 34.3 °F 26.6 °F 57% 30.32 in 10.0 mi NNW 11.5 mph - N/A   Clear
2:35 PM 41.0 °F 33.5 °F 24.8 °F 53% 30.32 in 10.0 mi NNW 13.8 mph 18.4 mph N/A   Clear
2:55 PM 42.8 °F 36.6 °F 24.8 °F 49% 30.33 in 10.0 mi NW 11.5 mph 20.7 mph N/A   Clear
3:15 PM 42.8 °F 37.0 °F 21.2 °F 42% 30.34 in 10.0 mi NNW 10.4 mph 24.2 mph N/A   Clear
3:35 PM 42.8 °F 35.8 °F 19.4 °F 39% 30.35 in 10.0 mi NNW 13.8 mph 20.7 mph N/A   Clear
3:55 PM 42.8 °F 35.8 °F 19.4 °F 39% 30.36 in 10.0 mi NW 13.8 mph 19.6 mph N/A   Clear
4:15 PM 41.0 °F 34.3 °F 19.4 °F 42% 30.37 in 10.0 mi NW 11.5 mph 18.4 mph N/A   Clear
4:35 PM 39.2 °F 32.0 °F 17.6 °F 42% 30.38 in 10.0 mi NNW 11.5 mph 18.4 mph N/A   Clear
4:55 PM 39.2 °F 32.5 °F 15.8 °F 39% 30.39 in 10.0 mi NNW 10.4 mph - N/A   Clear
5:15 PM 37.4 °F 32.8 °F 15.8 °F 41% 30.39 in 10.0 mi NNW 5.8 mph - N/A   Clear
5:35 PM 35.6 °F 30.7 °F 17.6 °F 48% 30.40 in 10.0 mi NNW 5.8 mph - N/A   Clear
5:55 PM 35.6 °F 30.7 °F 17.6 °F 48% 30.41 in 10.0 mi NNW 5.8 mph - N/A   Clear
6:15 PM 35.6 °F 30.7 °F 17.6 °F 48% 30.42 in 10.0 mi NNW 5.8 mph - N/A   Clear
6:35 PM 33.8 °F 27.7 °F 17.6 °F 52% 30.43 in 10.0 mi NNW 6.9 mph - N/A   Clear
6:55 PM 33.8 °F 27.7 °F 17.6 °F 52% 30.44 in 10.0 mi NNW 6.9 mph - N/A   Clear
7:15 PM 33.8 °F 27.7 °F 17.6 °F 52% 30.45 in 10.0 mi NNW 6.9 mph - N/A   Clear
7:35 PM 33.8 °F 27.7 °F 17.6 °F 52% 30.46 in 10.0 mi NNW 6.9 mph - N/A   Clear
7:55 PM 33.8 °F 27.7 °F 17.6 °F 52% 30.47 in 10.0 mi NNW 6.9 mph - N/A   Clear
8:15 PM 32.0 °F 26.4 °F 17.6 °F 55% 30.47 in 10.0 mi NNW 5.8 mph - N/A   Clear
8:55 PM 30.2 °F - 17.6 °F 60% 30.48 in 10.0 mi Calm Calm - N/A   Clear
9:15 PM 30.2 °F 26.7 °F 17.6 °F 60% 30.48 in 10.0 mi North 3.5 mph - N/A   Clear
9:35 PM 30.2 °F 26.7 °F 17.6 °F 60% 30.48 in 10.0 mi NNW 3.5 mph - N/A   Clear
9:55 PM 30.2 °F 26.7 °F 17.6 °F 60% 30.48 in 10.0 mi NNW 3.5 mph - N/A   Clear
10:15 PM 28.4 °F - 17.6 °F 64% 30.49 in 10.0 mi Calm Calm - N/A   Clear
10:35 PM 24.8 °F - 17.6 °F 74% 30.49 in 10.0 mi Calm Calm - N/A   Clear
10:55 PM 28.4 °F 24.6 °F 17.6 °F 64% 30.50 in 10.0 mi NNW 3.5 mph - N/A   Clear
11:15 PM 26.6 °F - 17.6 °F 69% 30.49 in 10.0 mi Calm Calm - N/A   Clear
11:35 PM 24.8 °F - 17.6 °F 74% 30.49 in 10.0 mi Calm Calm - N/A   Clear
11:55 PM 23.0 °F - 17.6 °F 80% 30.49 in 10.0 mi Calm Calm - N/A   Clear